Regional Weather Roundup
Issued by NWS

Home | Current Version | Previous Version | Text Only | Print | Product List | Glossary On
Versions: 1 2 3 4 5 6 7 8 9 10 11 12 13 14 15 16 17 18 19 20 21 22 23 24 25 26 27 28 29 30 31 32 33 34 35 36 37 38 39 40 41 42 43 44 45 46 47 48 49 50
641
ASUS43 KLOT 090608
RWRIL

ILLINOIS REGIONAL WEATHER ROUNDUP
NATIONAL WEATHER SERVICE CHICAGO/ROMEOVILLE IL
1200 AM CST TUE FEB 09 2016

NOTE: "FAIR" INDICATES FEW OR NO CLOUDS BELOW 12,000 FEET WITH NO
SIGNIFICANT WEATHER AND/OR OBSTRUCTIONS TO VISIBILITY.

* THESE STATIONS ARE NOT UNDER NWS QUALITY CONTROL. THEY ALSO MAY NOT
  REPORT WEATHER SUCH AS PRECIPITATION OR FOG.

ILZ001-002-007-009-015-016-024-090700-
NORTHWEST ILLINOIS

CITY           SKY/WX    TMP DP  RH WIND       PRES   REMARKS
MOLINE         LGT SNOW  17  11  77 NW14      29.85F WCI   3
6HR MIN TEMP:  17; 6HR MAX TEMP:  19; 6HR PCP: TRACE;

STERLING*      CLOUDY    18   9  68 NW15      29.79S WCI   3
SAVANNA*       LGT SNOW  17  10  74 NW10G18   29.84S WCI   4
$$

ILZ003-004-008-010-011-017-018-090700-
NORTH CENTRAL ILLINOIS

CITY           SKY/WX    TMP DP  RH WIND       PRES   REMARKS
ROCKFORD       CLOUDY    19  11  70 NW15G21   29.80S WCI   5
6HR MIN TEMP:  19; 6HR MAX TEMP:  24;

FREEPORT*      CLOUDY    16  10  74 N14       29.81S WCI   2
ROCHELLE*      CLOUDY    19  13  75 NW16      29.79S WCI   5
DE KALB*       CLOUDY    21  13  72 NW14      29.76S WCI   8
$$

ILZ005-006-012>014-019>023-090700-
NORTHEAST ILLINOIS

CITY           SKY/WX    TMP DP  RH WIND       PRES   REMARKS
CHICAGO-OHARE  FLURRIES  21  16  81 NW13      29.73S WCI   9
6HR MIN TEMP:  21; 6HR MAX TEMP:  27; 6HR PCP:  0.02;

CHICAGO-MIDWAY LGT SNOW  23  16  74 NW12      29.74S WCI  12
6HR MIN TEMP:  23; 6HR MAX TEMP:  28; 6HR PCP: TRACE;

AURORA         CLOUDY    23  15  71 NW12      29.76S WCI  12
6HR MIN TEMP:  22; 6HR MAX TEMP:  26; 6HR PCP: TRACE;

LANSING*       LGT SNOW  24  19  81 NW8       29.74S WCI  14
WAUKEGAN       LGT SNOW  19  15  84 NW12G20   29.72S FOG     WCI   7
6HR MIN TEMP:  19; 6HR MAX TEMP:  26; 6HR PCP:  0.01;

DUPAGE AIRPORT MIX PCPN  21  13  71 NW13      29.74F WCI   9
6HR MIN TEMP:  21; 6HR MAX TEMP:  26; 6HR PCP: TRACE;

KANKAKEE*      FLURRIES  23  18  82 W10       29.77S WCI  12
WHEELING       LGT SNOW  20  15  81 NW13      29.75R WCI   7
6HR MIN TEMP:  20; 6HR MAX TEMP:  26; 6HR PCP: TRACE;

MORRIS*        CLOUDY    23  16  75 NW15      29.74S WCI  10
ROMEOVILLE*    FLURRIES  22  17  81 NW9       29.75S WCI  12
NORTHERLY ISL    N/A     23  20  88 W14         N/A  WCI  11
$$

LMZ740>746-090700-
SOUTHERN LAKE MICHIGAN

STATION/POSITION SKY/WX   TEMP    WIND        PRES    VSBY  WAVE
                          AIR SEA DIR/SP/G                  HT/PER
                          (F)     (DEG/KT/KT) (MB)    (MI)  (FT/S)
HARRISON CRIB              24     300/ 16/ 17   N/A
BURNHAM HARBOR             23     270/ 13/ 16   N/A
CALUMET HARBOR             23     280/ 10/ 15 1006.5R
BURNS HARBOR               25     300/ 16/ 21 1006.8F
MICHIGAN CITY              26     260/ 21/ 23   N/A
$$

ILZ025>027-034>036-040-047-049-050-058-095>099-090700-
WEST-CENTRAL ILLINOIS

CITY           SKY/WX    TMP DP  RH WIND       PRES   REMARKS
QUINCY         LGT SNOW  18  13  80 NW16      29.91F WCI   3
GALESBURG*     FLURRIES  17  12  82 NW15G22   29.85S WCI   2
MACOMB*        LGT SNOW  18  14  85 NW18      29.90S WCI   2
JACKSONVILLE*  FLURRIES  21  14  74 W14G24    29.88F WCI   8
PITTSFIELD*    LGT SNOW  19  14  82 W10G18    29.91F WCI   7
$$

ILZ028>032-037-038-041>044-048-051>054-059>061-090700-
CENTRAL ILLINOIS

CITY           SKY/WX    TMP DP  RH WIND       PRES   REMARKS
PONTIAC        CLOUDY    21  17  83 W16       29.80S WCI   7
BLOOMINGTON    FLURRIES  18  12  77 W16       29.81F WCI   3
DECATUR        CLOUDY    19  11  70 NW13      29.84S WCI   6
PEORIA         CLOUDY    18   9  68 NW10G23   29.84F WCI   6
6HR MIN TEMP:  18; 6HR MAX TEMP:  20; 6HR PCP: TRACE;

LACON*         CLOUDY    19  11  71 NW14G20   29.83S WCI   5
LINCOLN*       CLOUDY    19  12  74 W5G20     29.85S WCI  13
SPRINGFIELD    CLOUDY    20  11  68 NW13      29.87F WCI   7
6HR MIN TEMP:  20; 6HR MAX TEMP:  21; 6HR PCP:  0.01;

TAYLORVILLE    FLURRIES  19  12  73 NW17      29.87S WCI   4
$$

ILZ033-039-045-046-055>057-062-063-090700-
EAST-CENTRAL ILLINOIS

CITY           SKY/WX    TMP DP  RH WIND       PRES   REMARKS
CHAMPAIGN      CLOUDY    20  14  77 NW17      29.80F WCI   5
RANTOUL*       CLOUDY    21  16  79 W15G23    29.79F WCI   8
MATTOON        LGT SNOW  18  13  80 W18       29.82F WCI   2
PARIS*         FLURRIES  20  17  86 W13       29.81F WCI   7
$$

ILZ079-100>102-090700-
SOUTHWEST ILLINOIS

CITY           SKY/WX    TMP DP  RH WIND       PRES   REMARKS
ALTON          CLOUDY    21  15  77 W16G22    29.91F WCI   7
CAHOKIA*       CLOUDY    24  12  60 W13       29.93S WCI  12
SPARTA*        CLOUDY    23  14  69 NW10G17   29.92F WCI  12
$$

ILZ064>066-069>071-074>076-080>082-084>086-088>090-092>094-090700-
SOUTH-CENTRAL ILLINOIS

CITY           SKY/WX    TMP DP  RH WIND       PRES   REMARKS
CARBONDALE     FLURRIES  23  17  78 NW8       29.92F WCI  14
6HR MIN TEMP:  23; 6HR MAX TEMP:  25; 6HR PCP: TRACE;

CAIRO*         CLOUDY    28  19  68 NW8       29.93S WCI  20
EFFINGHAM*     LGT SNOW  20  17  89 W9        29.88S WCI   9
MARION         FLURRIES  25  18  74 NW8       29.92S WCI  16
MT. VERNON     CLOUDY    21  10  63 NW7       29.89F WCI  13
CENTRALIA*     FLURRIES  22  17  79 NW10      29.89S WCI  11
SALEM*         LGT SNOW  22  15  75 W9        29.88F WCI  11
METROPOLIS*    LGT SNOW  26  24  93 NW3       29.92F
$$

ILZ067-068-072-073-078-083-087-091-090700-
SOUTHEAST ILLINOIS

CITY           SKY/WX    TMP DP  RH WIND       PRES   REMARKS
LAWRENCEVILLE  CLOUDY    21  16  81 NW13      29.86F WCI   9
FLORA*         FLURRIES  22  15  75 NW16G23   29.89S WCI   8
FAIRFIELD*     LGT SNOW  21  17  82 W7        29.88F WCI  13
HARRISBURG*    FLURRIES  23  18  80 NW9       29.91F WCI  13
ROBINSON*      CLOUDY    19  14  79 NW16      29.86F WCI   5
CARMI*         LGT SNOW  22  19  87 W10       29.89F WCI  11
$$

ABBREVIATIONS USED IN REMARKS
   TC - TEMPERATURE IN CELSIUS
  WCI - WIND CHILL INDEX
   HX - HEAT INDEX
  VSB - VISIBILITY
$$





USA.gov is the U.S. government's official web portal to all federal, state and local government web resources and services.